| time (UTC) | temp F | wind direction | speed knots | gust knots | rain 1hr in | rain 24hr in | rain mn in | humidity % | barometer mb |
| 20260506204605 | 59 | 3 | 0.9 | 2.6 | 0.00 | 0.70 | 0.41 | 56 | 1013.9 |
| 20260506204106 | 59 | 51 | 0.9 | 4.3 | 0.00 | 0.70 | 0.41 | 56 | 1013.8 |
| 20260506203604 | 59 | 59 | 0.0 | 5.2 | 0.00 | 0.70 | 0.41 | 56 | 1013.5 |
| 20260506202604 | 59 | 19 | 1.7 | 2.6 | 0.00 | 0.70 | 0.41 | 56 | 1013.5 |
| 20260506202105 | 60 | 353 | 0.9 | 2.6 | 0.00 | 0.70 | 0.41 | 56 | 1013.6 |
| 20260506201604 | 60 | 358 | 1.7 | 7.0 | 0.00 | 0.70 | 0.41 | 56 | 1013.6 |
| 20260506201105 | 60 | 36 | 0.9 | 2.6 | 0.00 | 0.70 | 0.41 | 55 | 1013.5 |
| 20260506200105 | 60 | 123 | 0.9 | 4.3 | 0.00 | 0.70 | 0.41 | 55 | 1013.6 |
| 20260506195604 | 60 | 25 | 0.9 | 2.6 | 0.00 | 0.70 | 0.41 | 53 | 1013.6 |
| 20260506195105 | 61 | 348 | 0.9 | 2.6 | 0.00 | 0.70 | 0.41 | 53 | 1013.6 |
| 20260506194604 | 61 | 321 | 0.0 | 2.6 | 0.00 | 0.70 | 0.41 | 54 | 1013.5 |
| 20260506193604 | 60 | 334 | 1.7 | 6.1 | 0.00 | 0.70 | 0.41 | 53 | 1013.4 |
| 20260506193104 | 61 | 28 | 1.7 | 2.6 | 0.00 | 0.70 | 0.41 | 52 | 1013.5 |
| 20260506192604 | 60 | 3 | 0.0 | 2.6 | 0.00 | 0.70 | 0.41 | 53 | 1013.4 |
| 20260506192104 | 60 | 281 | 1.7 | 2.6 | 0.00 | 0.70 | 0.41 | 52 | 1013.5 |
| 20260506191104 | 60 | 269 | 0.0 | 2.6 | 0.00 | 0.70 | 0.41 | 54 | 1013.5 |
| 20260506190604 | 60 | 46 | 0.9 | 4.3 | 0.00 | 0.70 | 0.41 | 55 | 1013.4 |
| 20260506185105 | 59 | 10 | 0.9 | 1.7 | 0.00 | 0.70 | 0.41 | 55 | 1013.7 |
| 20260506184106 | 59 | 357 | 1.7 | 7.8 | 0.00 | 0.70 | 0.41 | 56 | 1013.7 |
| 20260506182604 | 59 | 340 | 0.0 | 2.6 | 0.00 | 0.70 | 0.41 | 58 | 1013.7 |
| 20260506182105 | 59 | 356 | 0.9 | 2.6 | 0.00 | 0.70 | 0.41 | 59 | 1013.7 |
| 20260506181605 | 59 | 289 | 0.0 | 1.7 | 0.00 | 0.70 | 0.41 | 57 | 1013.7 |
| 20260506181105 | 59 | 263 | 0.0 | 2.6 | 0.00 | 0.70 | 0.41 | 56 | 1013.7 |
| 20260506180605 | 59 | 309 | 0.0 | 2.6 | 0.00 | 0.70 | 0.41 | 57 | 1013.7 |
| 20260506180104 | 59 | 256 | 0.9 | 4.3 | 0.00 | 0.70 | 0.41 | 58 | 1013.9 |
| 20260506175605 | 59 | 5 | 0.9 | 2.6 | 0.00 | 0.70 | 0.41 | 59 | 1013.8 |
| 20260506175105 | 59 | 64 | 0.9 | 2.6 | 0.00 | 0.70 | 0.41 | 59 | 1013.8 |
| 20260506174605 | 59 | 99 | 0.9 | 2.6 | 0.00 | 0.70 | 0.41 | 58 | 1013.8 |
| 20260506174104 | 59 | 25 | 1.7 | 5.2 | 0.00 | 0.70 | 0.41 | 55 | 1013.8 |
| 20260506173604 | 59 | 356 | 1.7 | 2.6 | 0.00 | 0.70 | 0.41 | 59 | 1014.0 |
| 20260506173105 | 58 | 28 | 0.9 | 2.6 | 0.00 | 0.70 | 0.41 | 60 | 1014.0 |
| 20260506172604 | 58 | 340 | 0.9 | 7.0 | 0.00 | 0.70 | 0.41 | 63 | 1013.8 |
| 20260506172104 | 58 | 346 | 0.9 | 4.3 | 0.00 | 0.70 | 0.41 | 61 | 1013.8 |
| 20260506171604 | 58 | 309 | 0.9 | 2.6 | 0.00 | 0.70 | 0.41 | 64 | 1013.7 |
| 20260506171105 | 57 | 3 | 0.9 | 2.6 | 0.00 | 0.70 | 0.41 | 62 | 1013.6 |
| 20260506170605 | 57 | 259 | 0.9 | 2.6 | 0.00 | 0.70 | 0.41 | 61 | 1013.7 |
| 20260506170105 | 58 | 29 | 0.9 | 4.3 | 0.00 | 0.70 | 0.41 | 62 | 1013.9 |
| 20260506165605 | 58 | 309 | 0.9 | 2.6 | 0.00 | 0.70 | 0.41 | 62 | 1014.2 |
| 20260506164104 | 57 | 5 | 0.9 | 2.6 | 0.00 | 0.70 | 0.41 | 68 | 1013.9 |
| 20260506163604 | 56 | 5 | 0.0 | 2.6 | 0.00 | 0.70 | 0.41 | 67 | 1013.8 |
| 20260506163105 | 56 | 348 | 1.7 | 6.1 | 0.00 | 0.70 | 0.41 | 71 | 1013.7 |
| 20260506162604 | 56 | 232 | 0.9 | 1.7 | 0.00 | 0.70 | 0.41 | 69 | 1013.7 |
| 20260506162105 | 55 | 223 | 1.7 | 4.3 | 0.00 | 0.70 | 0.41 | 69 | 1013.9 |
| 20260506161605 | 55 | 317 | 0.0 | 2.6 | 0.00 | 0.70 | 0.41 | 74 | 1013.8 |
| 20260506161105 | 55 | 19 | 0.9 | 2.6 | 0.00 | 0.70 | 0.41 | 75 | 1013.8 |
| 20260506160104 | 54 | 8 | 0.0 | 0.9 | 0.00 | 0.70 | 0.41 | 79 | 1013.8 |
| 20260506155604 | 53 | 8 | 0.9 | 1.7 | 0.00 | 0.70 | 0.41 | 77 | 1013.7 |
| 20260506155105 | 53 | 282 | 0.0 | 1.7 | 0.00 | 0.70 | 0.41 | 78 | 1013.8 |
| 20260506154605 | 53 | 247 | 0.9 | 2.6 | 0.00 | 0.70 | 0.41 | 80 | 1013.6 |
| 20260506153605 | 52 | 349 | 0.0 | 1.7 | 0.00 | 0.70 | 0.41 | 80 | 1013.5 |
| 20260506153105 | 51 | 15 | 0.9 | 4.3 | 0.00 | 0.70 | 0.41 | 78 | 1013.6 |
| 20260506152604 | 51 | 98 | 0.0 | 0.9 | 0.00 | 0.70 | 0.41 | 79 | 1013.5 |
| 20260506150604 | 50 | 45 | 0.0 | 2.6 | 0.00 | 0.70 | 0.41 | 83 | 1013.6 |
| 20260506145604 | 49 | 249 | 0.9 | 5.2 | 0.00 | 0.70 | 0.41 | 84 | 1013.3 |
| 20260506145104 | 49 | 8 | 0.9 | 5.2 | 0.00 | 0.70 | 0.41 | 86 | 1013.3 |
| 20260506144604 | 49 | 317 | 0.9 | 1.7 | 0.00 | 0.70 | 0.41 | 88 | 1013.1 |
| 20260506144104 | 49 | 355 | 0.0 | 1.7 | 0.00 | 0.70 | 0.41 | 89 | 1013.0 |
| 20260506143605 | 48 | 345 | 0.9 | 2.6 | 0.00 | 0.70 | 0.41 | 89 | 1012.8 |
| 20260506143105 | 48 | 0 | 0.9 | 2.6 | 0.00 | 0.70 | 0.41 | 90 | 1012.7 |
| 20260506142604 | 48 | 350 | 0.0 | 2.6 | 0.00 | 0.70 | 0.41 | 90 | 1012.9 |
| 20260506142105 | 48 | 16 | 0.9 | 4.3 | 0.00 | 0.70 | 0.41 | 90 | 1012.9 |
| 20260506141604 | 48 | 334 | 0.9 | 2.6 | 0.00 | 0.70 | 0.41 | 91 | 1012.8 |
| 20260506141105 | 48 | 66 | 0.9 | 2.6 | 0.00 | 0.70 | 0.41 | 91 | 1012.8 |
| 20260506140605 | 48 | 5 | 0.0 | 1.7 | 0.00 | 0.70 | 0.41 | 92 | 1012.5 |
| 20260506140104 | 48 | 12 | 0.9 | 2.6 | 0.00 | 0.70 | 0.41 | 91 | 1012.5 |
| 20260506135604 | 48 | 7 | 1.7 | 4.3 | 0.00 | 0.70 | 0.41 | 92 | 1012.5 |
| 20260506135105 | 48 | 233 | 0.0 | 2.6 | 0.00 | 0.70 | 0.41 | 92 | 1012.4 |
| 20260506134604 | 48 | 310 | 0.9 | 2.6 | 0.00 | 0.70 | 0.41 | 92 | 1012.2 |
| 20260506134105 | 48 | 6 | 0.0 | 2.6 | 0.00 | 0.70 | 0.41 | 93 | 1012.4 |
| 20260506133604 | 47 | 9 | 0.9 | 1.7 | 0.00 | 0.70 | 0.41 | 93 | 1012.3 |
| 20260506133105 | 47 | 325 | 0.0 | 2.6 | 0.00 | 0.70 | 0.41 | 92 | 1012.2 |
| 20260506132604 | 47 | 355 | 0.9 | 1.7 | 0.00 | 0.70 | 0.41 | 93 | 1012.1 |
| 20260506131104 | 47 | 355 | 0.0 | 0.9 | 0.00 | 0.70 | 0.41 | 93 | 1012.2 |
| 20260506130605 | 47 | 355 | 0.0 | 1.7 | 0.00 | 0.70 | 0.41 | 93 | 1012.3 |
| 20260506125604 | 47 | 350 | 0.0 | 1.7 | 0.00 | 0.70 | 0.41 | 93 | 1011.8 |
| 20260506125104 | 47 | 287 | 0.0 | 1.7 | 0.00 | 0.70 | 0.41 | 93 | 1011.4 |
| 20260506124604 | 47 | 254 | 0.9 | 2.6 | 0.00 | 0.70 | 0.41 | 93 | 1011.4 |
| 20260506124105 | 46 | 248 | 0.0 | 0.0 | 0.00 | 0.70 | 0.41 | 93 | 1011.6 |
| 20260506123604 | 46 | 248 | 0.0 | 0.0 | 0.00 | 0.70 | 0.41 | 93 | 1011.7 |
| 20260506123104 | 46 | 248 | 0.0 | 1.7 | 0.00 | 0.70 | 0.41 | 93 | 1011.8 |
| 20260506122604 | 46 | 5 | 0.0 | 0.9 | 0.00 | 0.70 | 0.41 | 93 | 1011.6 |
| 20260506122105 | 46 | 5 | 0.0 | 1.7 | 0.00 | 0.70 | 0.41 | 93 | 1011.5 |
| 20260506121604 | 46 | 5 | 0.0 | 1.7 | 0.00 | 0.70 | 0.41 | 93 | 1011.2 |
| 20260506121104 | 46 | 10 | 0.9 | 1.7 | 0.00 | 0.70 | 0.41 | 93 | 1011.1 |
| 20260506120604 | 46 | 15 | 0.0 | 0.9 | 0.01 | 0.70 | 0.41 | 93 | 1011.2 |
| 20260506120105 | 46 | 12 | 0.0 | 1.7 | 0.01 | 0.70 | 0.41 | 93 | 1011.4 |
| 20260506115604 | 46 | 30 | 0.0 | 0.0 | 0.02 | 0.70 | 0.41 | 93 | 1011.4 |
| 20260506115104 | 46 | 30 | 0.0 | 0.9 | 0.02 | 0.70 | 0.41 | 92 | 1011.2 |
| 20260506114604 | 46 | 31 | 0.9 | 1.7 | 0.03 | 0.70 | 0.41 | 93 | 1011.0 |
| 20260506113605 | 46 | 261 | 0.0 | 2.6 | 0.03 | 0.70 | 0.41 | 92 | 1011.1 |
| 20260506112104 | 46 | 267 | 0.0 | 1.7 | 0.03 | 0.70 | 0.41 | 92 | 1010.2 |
| 20260506111604 | 46 | 328 | 0.0 | 0.9 | 0.03 | 0.70 | 0.41 | 92 | 1010.2 |
| 20260506111104 | 46 | 318 | 0.9 | 2.6 | 0.03 | 0.70 | 0.41 | 92 | 1010.3 |
| 20260506110104 | 46 | 16 | 0.0 | 1.7 | 0.02 | 0.69 | 0.40 | 92 | 1010.8 |
| 20260506105604 | 46 | 261 | 0.0 | 2.6 | 0.01 | 0.68 | 0.39 | 92 | 1010.7 |
| 20260506105104 | 46 | 0 | 0.9 | 1.7 | 0.01 | 0.68 | 0.39 | 92 | 1010.6 |
| 20260506104604 | 46 | 355 | 0.9 | 2.6 | 0.00 | 0.67 | 0.38 | 92 | 1010.2 |
| 20260506104104 | 46 | 276 | 0.0 | 0.0 | 0.00 | 0.67 | 0.38 | 92 | 1010.1 |
| 20260506103605 | 46 | 276 | 0.0 | 0.0 | 0.00 | 0.67 | 0.38 | 92 | 1009.9 |
| 20260506102605 | 46 | 268 | 0.9 | 2.6 | 0.00 | 0.67 | 0.38 | 92 | 1009.9 |
| 20260506102104 | 46 | 21 | 0.0 | 0.0 | 0.00 | 0.67 | 0.38 | 92 | 1009.3 |
| 20260506101604 | 46 | 20 | 0.0 | 0.0 | 0.01 | 0.67 | 0.38 | 92 | 1009.1 |
| 20260506101105 | 46 | 20 | 0.0 | 0.0 | 0.01 | 0.67 | 0.38 | 92 | 1008.7 |
| 20260506100605 | 46 | 20 | 0.0 | 0.0 | 0.02 | 0.67 | 0.38 | 92 | 1009.1 |
| 20260506100104 | 46 | 20 | 0.0 | 1.7 | 0.02 | 0.67 | 0.38 | 92 | 1009.0 |
| 20260506095604 | 47 | 59 | 0.0 | 2.6 | 0.03 | 0.67 | 0.38 | 92 | 1009.4 |
| 20260506095104 | 47 | 10 | 0.0 | 2.6 | 0.03 | 0.67 | 0.38 | 92 | 1009.6 |
| 20260506094604 | 47 | 29 | 0.0 | 1.7 | 0.05 | 0.67 | 0.38 | 92 | 1009.3 |
| 20260506093604 | 47 | 30 | 0.9 | 1.7 | 0.07 | 0.67 | 0.38 | 92 | 1009.5 |
| 20260506093104 | 47 | 28 | 0.9 | 1.7 | 0.07 | 0.67 | 0.38 | 92 | 1009.4 |
| 20260506092604 | 47 | 271 | 0.9 | 2.6 | 0.09 | 0.67 | 0.38 | 92 | 1009.1 |
| 20260506092104 | 47 | 17 | 0.0 | 2.6 | 0.09 | 0.67 | 0.38 | 92 | 1009.1 |
| 20260506091605 | 47 | 42 | 0.9 | 2.6 | 0.08 | 0.66 | 0.37 | 91 | 1009.0 |
| 20260506091104 | 48 | 263 | 0.9 | 2.6 | 0.09 | 0.66 | 0.37 | 92 | 1009.2 |
| 20260506090604 | 48 | 53 | 0.9 | 2.6 | 0.08 | 0.65 | 0.36 | 92 | 1009.4 |
| 20260506090104 | 49 | 243 | 0.9 | 2.6 | 0.08 | 0.65 | 0.36 | 92 | 1009.5 |
| 20260506085604 | 49 | 250 | 0.9 | 2.6 | 0.07 | 0.64 | 0.35 | 92 | 1009.5 |
| 20260506085104 | 49 | 257 | 0.9 | 2.6 | 0.07 | 0.64 | 0.35 | 92 | 1009.2 |
| 20260506084604 | 49 | 269 | 0.9 | 5.2 | 0.05 | 0.62 | 0.33 | 92 | 1009.1 |
| 20260506084104 | 49 | 327 | 0.9 | 4.3 | 0.04 | 0.61 | 0.32 | 92 | 1009.0 |
| 20260506083604 | 50 | 278 | 0.9 | 1.7 | 0.04 | 0.60 | 0.31 | 92 | 1009.0 |
| 20260506083104 | 50 | 29 | 0.9 | 2.6 | 0.05 | 0.60 | 0.31 | 92 | 1009.1 |
| 20260506082105 | 50 | 35 | 0.0 | 2.6 | 0.05 | 0.58 | 0.29 | 92 | 1009.0 |
| 20260506081106 | 50 | 39 | 0.0 | 2.6 | 0.08 | 0.57 | 0.28 | 92 | 1008.5 |
| 20260506080604 | 50 | 46 | 0.0 | 0.9 | 0.09 | 0.57 | 0.28 | 92 | 1008.5 |
| 20260506080104 | 50 | 246 | 0.0 | 1.7 | 0.10 | 0.57 | 0.28 | 92 | 1008.3 |
| 20260506072604 | 52 | 274 | 0.0 | 2.6 | 0.13 | 0.54 | 0.25 | 92 | 1008.1 |
| 20260506072105 | 52 | 30 | 0.9 | 2.6 | 0.14 | 0.53 | 0.24 | 92 | 1008.1 |
| 20260506071604 | 53 | 291 | 0.0 | 2.6 | 0.15 | 0.52 | 0.23 | 92 | 1008.1 |
| 20260506071104 | 53 | 333 | 0.9 | 2.6 | 0.13 | 0.49 | 0.20 | 93 | 1008.2 |
| 20260506070605 | 53 | 48 | 0.0 | 1.7 | 0.13 | 0.48 | 0.19 | 93 | 1007.9 |
| 20260506070104 | 53 | 50 | 0.0 | 0.9 | 0.13 | 0.47 | 0.18 | 93 | 1007.9 |
| 20260506062105 | 54 | 17 | 0.9 | 2.6 | 0.08 | 0.39 | 0.10 | 92 | 1007.9 |
| 20260506061604 | 55 | 275 | 0.0 | 2.6 | 0.06 | 0.37 | 0.08 | 91 | 1008.0 |
| 20260506061104 | 55 | 6 | 0.0 | 2.6 | 0.05 | 0.36 | 0.07 | 92 | 1008.1 |
| 20260506060604 | 56 | 5 | 0.0 | 0.9 | 0.04 | 0.35 | 0.06 | 91 | 1007.9 |
| 20260506060105 | 56 | 5 | 0.0 | 1.7 | 0.03 | 0.34 | 0.05 | 91 | 1008.1 |
| 20260506051105 | 58 | 227 | 0.0 | 0.0 | 0.01 | 0.31 | 0.02 | 93 | 1008.7 |
| 20260506050604 | 58 | 227 | 0.0 | 0.0 | 0.02 | 0.31 | 0.02 | 93 | 1008.8 |
| 20260506050104 | 58 | 227 | 0.0 | 0.0 | 0.02 | 0.31 | 0.02 | 93 | 1008.7 |
| 20260506045105 | 58 | 227 | 0.0 | 0.0 | 0.03 | 0.31 | 0.02 | 93 | 1008.9 |
| 20260506044604 | 58 | 227 | 0.0 | 0.0 | 0.04 | 0.31 | 0.02 | 93 | 1009.0 |
| 20260506044105 | 58 | 227 | 0.0 | 0.0 | 0.05 | 0.31 | 0.02 | 93 | 1009.0 |
| 20260506043604 | 58 | 227 | 0.0 | 0.0 | 0.06 | 0.31 | 0.02 | 93 | 1009.0 |
| 20260506042104 | 58 | 227 | 0.0 | 0.0 | 0.09 | 0.31 | 0.02 | 93 | 1009.1 |
| 20260506041605 | 58 | 229 | 0.0 | 0.0 | 0.08 | 0.30 | 0.01 | 93 | 1009.2 |
| 20260506041104 | 58 | 229 | 0.0 | 0.0 | 0.09 | 0.30 | 0.01 | 93 | 1009.3 |
| 20260506040604 | 58 | 229 | 0.0 | 0.0 | 0.09 | 0.29 | 0.00 | 92 | 1009.3 |
| 20260506040104 | 58 | 229 | 0.0 | 0.0 | 0.10 | 0.29 | 0.00 | 92 | 1009.4 |
| 20260506035604 | 58 | 229 | 0.0 | 0.0 | 0.10 | 0.29 | 0.29 | 92 | 1009.5 |
| 20260506034605 | 59 | 229 | 0.0 | 0.0 | 0.10 | 0.27 | 0.27 | 92 | 1009.6 |
| 20260506034104 | 59 | 229 | 0.0 | 0.0 | 0.10 | 0.26 | 0.26 | 92 | 1009.7 |
| 20260506033104 | 59 | 229 | 0.0 | 0.0 | 0.09 | 0.24 | 0.24 | 92 | 1009.7 |
| 20260506032604 | 59 | 229 | 0.0 | 1.7 | 0.08 | 0.23 | 0.23 | 92 | 1009.8 |
| 20260506032104 | 59 | 229 | 0.0 | 0.9 | 0.08 | 0.22 | 0.22 | 92 | 1009.7 |
| 20260506031604 | 59 | 229 | 0.9 | 2.6 | 0.09 | 0.22 | 0.22 | 92 | 1009.7 |
| 20260506031104 | 59 | 17 | 0.0 | 1.7 | 0.09 | 0.21 | 0.21 | 92 | 1009.7 |
| 20260506030604 | 59 | 21 | 0.0 | 2.6 | 0.09 | 0.20 | 0.20 | 92 | 1009.7 |
| 20260506030104 | 59 | 22 | 0.0 | 0.0 | 0.09 | 0.19 | 0.19 | 92 | 1009.8 |
| 20260506025604 | 59 | 24 | 0.0 | 0.0 | 0.09 | 0.19 | 0.19 | 92 | 1009.9 |
| 20260506025104 | 59 | 24 | 0.0 | 0.0 | 0.09 | 0.18 | 0.18 | 92 | 1009.9 |
| 20260506024605 | 59 | 24 | 0.0 | 0.0 | 0.08 | 0.17 | 0.17 | 92 | 1009.9 |
| 20260506024104 | 59 | 24 | 0.0 | 0.0 | 0.08 | 0.16 | 0.16 | 92 | 1009.9 |
| 20260506023604 | 59 | 24 | 0.0 | 0.0 | 0.08 | 0.16 | 0.16 | 92 | 1010.0 |
| 20260506023105 | 59 | 24 | 0.0 | 0.0 | 0.07 | 0.15 | 0.15 | 92 | 1010.0 |
| 20260506022604 | 59 | 24 | 0.0 | 0.0 | 0.07 | 0.15 | 0.15 | 92 | 1009.9 |
| 20260506021604 | 59 | 347 | 0.0 | 0.0 | 0.05 | 0.13 | 0.13 | 92 | 1009.9 |
| 20260506021105 | 60 | 347 | 0.0 | 0.0 | 0.05 | 0.12 | 0.12 | 92 | 1009.9 |
| 20260506015604 | 60 | 347 | 0.0 | 0.0 | 0.03 | 0.10 | 0.10 | 92 | 1009.9 |
| 20260506015105 | 60 | 347 | 0.0 | 0.0 | 0.02 | 0.09 | 0.09 | 91 | 1009.7 |
| 20260506014604 | 60 | 347 | 0.0 | 0.0 | 0.02 | 0.09 | 0.09 | 91 | 1009.6 |
| 20260506014104 | 60 | 347 | 0.0 | 0.0 | 0.01 | 0.08 | 0.08 | 91 | 1009.7 |
| 20260506013604 | 60 | 347 | 0.0 | 0.0 | 0.01 | 0.08 | 0.08 | 91 | 1009.6 |
| 20260506013104 | 60 | 347 | 0.0 | 0.0 | 0.01 | 0.08 | 0.08 | 91 | 1009.6 |
| 20260506012605 | 60 | 347 | 0.0 | 0.0 | 0.01 | 0.08 | 0.08 | 91 | 1009.5 |
| 20260506012104 | 60 | 346 | 0.0 | 0.0 | 0.01 | 0.08 | 0.08 | 91 | 1009.6 |
| 20260506011605 | 60 | 346 | 0.0 | 0.9 | 0.01 | 0.08 | 0.08 | 91 | 1009.7 |
| 20260506010604 | 60 | 346 | 0.0 | 1.7 | 0.00 | 0.07 | 0.07 | 91 | 1009.7 |
| 20260506010104 | 60 | 346 | 0.0 | 0.9 | 0.00 | 0.07 | 0.07 | 91 | 1009.7 |
| 20260506005604 | 60 | 344 | 0.0 | 0.0 | 0.00 | 0.07 | 0.07 | 91 | 1009.8 |
| 20260506005104 | 60 | 344 | 0.0 | 0.0 | 0.00 | 0.07 | 0.07 | 91 | 1009.8 |
| 20260506004104 | 60 | 344 | 0.0 | 0.0 | 0.00 | 0.07 | 0.07 | 90 | 1009.7 |
| 20260506003604 | 60 | 344 | 0.0 | 0.0 | 0.01 | 0.07 | 0.07 | 90 | 1009.6 |
| 20260506003104 | 60 | 344 | 0.0 | 0.0 | 0.01 | 0.07 | 0.07 | 90 | 1009.6 |
| 20260506002604 | 60 | 344 | 0.0 | 0.0 | 0.01 | 0.07 | 0.07 | 90 | 1009.6 |
| 20260506001604 | 60 | 344 | 0.0 | 0.0 | 0.01 | 0.07 | 0.07 | 90 | 1009.6 |
| 20260506001104 | 60 | 344 | 0.0 | 0.0 | 0.01 | 0.07 | 0.07 | 90 | 1009.6 |
| 20260506000604 | 60 | 344 | 0.0 | 0.9 | 0.03 | 0.07 | 0.07 | 89 | 1009.7 |
| 20260505235604 | 60 | 339 | 0.0 | 1.7 | 0.06 | 0.07 | 0.07 | 89 | 1009.7 |
| 20260505234604 | 60 | 342 | 0.0 | 0.0 | 0.07 | 0.07 | 0.07 | 89 | 1009.7 |
| 20260505234104 | 60 | 342 | 0.0 | 0.9 | 0.07 | 0.07 | 0.07 | 89 | 1009.7 |
| 20260505233105 | 61 | 343 | 0.0 | 0.0 | 0.06 | 0.06 | 0.06 | 88 | 1009.9 |
| 20260505232604 | 61 | 343 | 0.0 | 1.7 | 0.06 | 0.06 | 0.06 | 88 | 1010.0 |
| 20260505232104 | 61 | 341 | 0.0 | 2.6 | 0.06 | 0.06 | 0.06 | 88 | 1010.0 |
| 20260505231604 | 61 | 190 | 0.9 | 2.6 | 0.06 | 0.06 | 0.06 | 87 | 1010.0 |
| 20260505231104 | 61 | 12 | 0.9 | 2.6 | 0.06 | 0.06 | 0.06 | 87 | 1009.9 |
| 20260505230604 | 62 | 279 | 0.9 | 2.6 | 0.04 | 0.04 | 0.04 | 86 | 1009.9 |
| 20260505230104 | 62 | 14 | 0.9 | 2.6 | 0.01 | 0.01 | 0.01 | 85 | 1009.8 |
| 20260505225105 | 64 | 355 | 0.9 | 4.3 | 0.01 | 0.01 | 0.01 | 84 | 1009.8 |
| 20260505224604 | 65 | 336 | 0.9 | 7.0 | 0.00 | 0.00 | 0.00 | 82 | 1009.8 |
| 20260505224104 | 67 | 248 | 2.6 | 4.3 | 0.00 | 0.00 | 0.00 | 78 | 1009.8 |
| 20260505223604 | 69 | 333 | 0.9 | 5.2 | 0.00 | 0.00 | 0.00 | 73 | 1009.7 |
| 20260505223104 | 70 | 300 | 2.6 | 5.2 | 0.00 | 0.00 | 0.00 | 67 | 1009.4 |
| 20260505222604 | 71 | 207 | 1.7 | 2.6 | 0.00 | 0.00 | 0.00 | 64 | 1009.2 |
| 20260505221604 | 71 | 166 | 2.6 | 7.0 | 0.00 | 0.00 | 0.00 | 61 | 1009.1 |
| 20260505221104 | 71 | 208 | 1.7 | 5.2 | 0.00 | 0.00 | 0.00 | 62 | 1009.1 |
| 20260505220605 | 71 | 195 | 2.6 | 7.8 | 0.00 | 0.00 | 0.00 | 61 | 1009.0 |
| 20260505215604 | 71 | 214 | 2.6 | 6.1 | 0.00 | 0.00 | 0.00 | 61 | 1009.0 |
| 20260505215106 | 72 | 209 | 1.7 | 5.2 | 0.00 | 0.00 | 0.00 | 61 | 1009.0 |
| 20260505214605 | 72 | 216 | 0.9 | 4.3 | 0.00 | 0.00 | 0.00 | 62 | 1009.0 |
| 20260505214106 | 72 | 216 | 2.6 | 6.1 | 0.00 | 0.00 | 0.00 | 61 | 1008.9 |
| 20260505213606 | 72 | 196 | 2.6 | 6.1 | 0.00 | 0.00 | 0.00 | 62 | 1008.9 |
| 20260505213106 | 72 | 206 | 2.6 | 6.1 | 0.00 | 0.00 | 0.00 | 62 | 1008.8 |
| 20260505212605 | 71 | 207 | 1.7 | 4.3 | 0.00 | 0.00 | 0.00 | 63 | 1008.9 |
| 20260505212105 | 71 | 211 | 0.9 | 4.3 | 0.00 | 0.00 | 0.00 | 64 | 1009.0 |
| 20260505211606 | 71 | 258 | 0.9 | 2.6 | 0.00 | 0.00 | 0.00 | 64 | 1008.9 |
| 20260505211105 | 71 | 206 | 0.9 | 2.6 | 0.00 | 0.00 | 0.00 | 63 | 1009.1 |
| 20260505210605 | 71 | 205 | 2.6 | 6.1 | 0.00 | 0.00 | 0.00 | 63 | 1009.1 |
| 20260505210107 | 71 | 216 | 2.6 | 5.2 | 0.00 | 0.00 | 0.00 | 63 | 1009.1 |
| 20260505205605 | 71 | 154 | 0.9 | 5.2 | 0.00 | 0.00 | 0.00 | 63 | 1009.1 |
| 20260505205106 | 71 | 207 | 1.7 | 5.2 | 0.00 | 0.00 | 0.00 | 64 | 1009.2 |